Location: Earls Croome
(52.0667°N, 2.2000°W)
Time: 03:11:31
(UTC+00:00)

Daily predictions for brighter satellites

Satellite Brightness Start Highest point End
(mag) Time Altitude Azimuth Time Altitude Azimuth Time Altitude Azimuth
SL-16 R/B 4.2 03:10:33 24° NE 03:10:33 24° NE 03:14:33 10° E
Cosmos 1980 Rocket 4.5 03:19:58 16° SE 03:19:58 16° SE 03:21:05 10° SE
Cosmos 2322 Rocket 4.1 03:19:06 25° NE 03:19:06 25° NE 03:23:41 10° E
CZ-4C R/B 3.7 03:32:39 34° NNE 03:32:39 34° NNE 03:36:30 10° NE
ATLAS 2AS CENTAUR R/B 3.5 03:31:58 48° N 03:32:50 50° NNE 03:40:00 10° ESE
SJ 16-02 4.2 03:37:49 13° ESE 03:39:09 14° E 03:41:31 10° ENE
SL-4 R/B 3.9 03:59:44 33° E 03:59:44 33° E 04:02:26 10° E
Cosmos 2219 Rocket 4.5 03:57:24 13° N 03:59:29 16° NNE 04:02:48 10° ENE
USA 234 3.4 03:59:17 10° ENE 04:05:43 61° N 04:05:49 61° NNW
IDEFIX/ARIANE 42P 3.7 04:05:17 10° NNE 04:08:18 36° NNE 04:08:18 36° NNE
COSMOS 2406 4.1 04:22:24 37° N 04:22:24 37° N 04:26:14 10° NNE
Cosmos 2082 Rocket 2.1 04:25:34 79° SSE 04:25:51 83° ESE 04:31:36 10° NNE
NOSS 2-2 (D) 4.3 04:28:47 74° WSW 04:29:04 75° SW 04:36:45 10° SE
Cosmos 1076 Rocket 4.5 04:31:42 41° NE 04:31:42 41° NE 04:34:42 10° NNE
ADEOS II 4.4 04:28:15 10° N 04:28:30 11° N 04:28:30 11° N
Cosmos 158 Rocket 4.3 04:34:13 53° SSE 04:34:13 53° SSE 04:37:55 10° SSE
Cosmos 1934 Rocket 4.0 04:36:30 60° NW 04:36:30 60° NW 04:42:24 10° N
Meteor 1-11 4.4 04:38:02 57° NNW 04:38:02 57° NNW 04:43:01 10° N
Cosmos 1833 Rocket 2.8 04:41:03 58° NNW 04:41:03 58° NNW 04:46:10 10° NNE
COSMOS 2455 2.8 04:40:31 52° NW 04:42:08 87° ENE 04:48:09 10° SE
Lacrosse 5 1.8 04:42:40 78° S 04:42:55 81° SE 04:48:01 10° ENE
NOSS 3-4 (A) 3.9 04:41:05 36° NW 04:44:08 72° NE 04:51:39 10° SE
NOSS 3-4 (C) 3.9 04:41:11 36° NW 04:44:14 72° NE 04:51:44 10° SE
SL-27 R/B 4.3 04:46:35 24° NE 04:46:35 24° NE 04:48:07 10° NNE
MSX 3.7 04:39:22 10° NNE 04:45:09 78° WNW 04:47:19 40° SSW
Cosmos 1447 Rocket 4.4 04:41:56 10° NNW 04:48:16 72° W 04:54:35 10° S
CZ-2C R/B 2.3 04:45:01 10° NNE 04:49:59 83° ESE 04:53:05 22° SSW
Cosmos 990 Rocket 4.3 04:46:46 18° S 04:50:39 66° ESE 04:55:51 10° NNE
Cosmos 967 Rocket 4.4 04:48:56 39° SW 04:51:31 88° SE 04:58:00 10° NE
Cosmos 2360 Rocket 3.1 04:49:37 18° NNW 04:53:33 46° NE 04:59:01 10° ESE
Cosmos 2237 Rocket 4.5 04:51:02 10° NNW 04:54:31 16° NNE 04:57:59 10° ENE
SL-16 R/B 2.1 04:52:28 36° NNW 04:54:53 87° ENE 05:00:35 10° SSE
ATLAS CENTAUR R/B 4.3 04:51:30 10° SSE 04:55:01 20° ESE 04:58:28 10° ENE
NOSS 3-3 (A) 4.3 04:51:48 21° SSW 04:55:57 64° SE 05:02:38 10° NE
Meteor 2-20 4.3 04:49:51 10° NNW 04:56:01 71° W 05:02:08 10° S
NOSS 3-3 (C) 4.3 04:51:53 20° SSW 04:56:03 63° SE 05:02:43 10° NE
ADEOS 3.9 04:53:29 10° N 04:57:51 47° NW 04:57:51 47° NW
Cosmos 1980 Rocket 3.5 05:01:49 24° SSW 05:01:49 24° SSW 05:04:23 10° S
ASTEX 1 3.3 04:54:48 10° S 04:59:44 68° W 05:04:44 10° N
Meteor PRIRODA 4.3 04:58:21 10° NNE 05:01:59 54° E 05:05:34 10° S
Cosmos 2322 Rocket 2.1 05:00:58 29° NNW 05:03:57 88° ENE 05:09:39 10° SSE
ALOS 4.0 04:59:46 10° NNE 05:03:59 33° E 05:08:12 10° SSE
COSMOS 2441 4.4 05:00:29 10° N 05:05:00 54° WNW 05:05:00 54° WNW
STARLINK-46 4.0 05:07:08 42° E 05:07:08 42° E 05:09:15 10° E
Cosmos 2151 3.5 05:04:49 10° S 05:09:04 61° E 05:13:20 10° NNE
Cosmos 1766 Rocket 4.1 05:05:49 10° S 05:10:03 57° E 05:14:21 10° NNE
Lacrosse 5 rocket 1.7 05:10:59 42° N 05:11:06 42° NNE 05:14:32 10° E
Okean 3 Rocket 3.7 05:07:17 10° S 05:11:47 77° E 05:16:17 10° NNE
H-2A R/B 2.7 05:08:11 10° N 05:12:35 53° WNW 05:12:35 53° WNW
Cosmos 1408 4.0 05:10:25 10° SSE 05:13:51 38° E 05:17:19 10° NNE
CZ-4B R/B 4.0 05:11:11 10° N 05:15:41 74° WNW 05:20:09 10° SSW
Cosmos 1153 Rocket 4.3 05:10:16 10° SSW 05:16:21 68° WNW 05:22:30 10° N
SJ 16-02 1.2 05:14:55 29° SSW 05:17:06 79° WNW 05:21:31 10° NNE
Cosmos 839 Rocket 4.0 05:14:10 27° SW 05:18:03 70° NW 05:24:15 10° NE
Cosmos 2061 Rocket 4.5 05:13:24 10° S 05:19:32 62° E 05:25:40 10° NNE
COSMO-SKYMED 1 2.4 05:15:12 10° SSE 05:19:33 81° WSW 05:23:14 15° NNW
CZ-4C R/B 3.5 05:17:50 25° NW 05:19:59 31° N 05:26:07 10° NE
Cosmos 2173 Rocket 4.0 05:17:14 10° S 05:23:30 86° E 05:29:43 10° N
ATLAS 2AS CENTAUR R/B 2.9 05:19:26 25° NW 05:24:16 68° SW 05:31:20 10° SSE
Cosmos 1605 Rocket 4.3 05:21:55 21° SW 05:25:33 42° WNW 05:31:21 10° N
Cosmos 1898 Rocket 3.4 05:21:35 16° SW 05:25:50 68° WNW 05:31:09 10° NNE
Helios 1A Rocket 4.4 05:21:58 10° NNE 05:25:50 39° E 05:29:41 10° SSE
deb Kosmos-1763 4.3 05:29:17 47° NW 05:29:17 47° NW 05:32:43 10° NNE
Cosmos 2322 4.4 05:25:20 11° NNW 05:30:44 52° NE 05:36:15 10° SE
Meteor 1-31 Rocket 3.0 05:30:24 10° N 05:34:05 44° WNW 05:34:49 39° WSW
STARLINK-80 3.9 05:32:24 28° SW 05:34:12 55° SSE 05:37:58 10° ENE
FENGYUN 3A 4.3 05:29:33 10° NNE 05:34:57 59° E 05:40:16 10° S
Cosmos 2084 Rocket 4.3 05:34:10 32° NW 05:34:59 35° NNW 05:39:06 10° NE
Cosmos 1937 Rocket 3.3 05:29:52 10° SSW 05:35:01 75° WNW 05:40:11 10° NNE
Cosmos 1606 3.5 05:32:16 10° N 05:35:59 50° ENE 05:39:42 10° SSE
CZ-4B R/B 4.1 05:31:54 10° NNE 05:37:09 51° E 05:42:28 10° S
SL-4 R/B 2.8 05:35:21 32° W 05:37:12 51° SSW 05:41:52 10° SE
Cosmos 2333 Rocket 3.4 05:31:47 10° NNW 05:37:15 41° NE 05:42:41 10° ESE
Cosmos 1892 2.6 05:34:40 10° SSW 05:38:25 59° WNW 05:42:11 10° N
COBE Rocket 4.4 05:35:15 10° SSW 05:40:03 40° W 05:44:49 10° NNW
Cosmos 1484 Rocket 2.7 05:36:14 10° N 05:40:16 74° WNW 05:44:16 10° SSW
BREEZE-M DEB (TANK) 4.0 05:40:40 21° SW 05:41:15 22° SSW 05:43:26 10° SE
CZ-4B R/B 3.0 05:38:56 10° N 05:42:19 38° WNW 05:42:47 36° W
Cosmos 2058 3.5 05:41:51 32° W 05:42:31 34° WNW 05:46:23 10° N
Cosmos 2228 Rocket 3.7 05:39:17 10° N 05:43:51 60° ENE 05:48:23 10° SSE
Cosmos 2219 Rocket 3.3 05:39:38 10° NNW 05:45:01 42° NE 05:50:24 10° ESE
Okean O Rocket 2.2 05:40:45 10° NNE 05:45:05 60° ESE 05:49:23 10° S
USA 116 3.3 05:43:34 10° S 05:46:48 61° WSW 05:49:51 14° NNW
STARLINK-52 3.1 05:46:37 37° W 05:47:53 76° N 05:51:26 10° E
Cosmos 2346 Rocket 4.4 05:42:01 10° NNW 05:48:09 82° W 05:54:12 10° S
USA 234 3.5 05:41:56 10° E 05:48:23 64° NNE 05:53:09 19° WNW
IDEFIX/ARIANE 42P 3.9 05:45:52 10° N 05:49:05 19° NW 05:49:05 19° NW
STARLINK-60 3.0 05:48:57 37° WNW 05:50:09 73° N 05:53:31 10° E
Cosmos 1400 Rocket 3.4 05:46:18 10° N 05:50:23 59° ENE 05:54:22 10° SSE
NOAA 6 4.4 05:48:13 10° NNE 05:53:21 68° ESE 05:58:27 10° S
Gbstr 26 Del rocket 2.8 05:51:35 22° WSW 05:53:54 67° SSE 05:57:38 10° E
PAYLOAD B 4.2 05:48:38 10° NNE 05:54:11 86° ESE 05:59:42 10° SSW
Cosmos 1825 2.1 05:54:07 10° S 05:57:53 88° ESE 06:01:41 10° N
STARLINK-48 3.8 05:57:18 15° WSW 06:00:24 63° SSE 06:04:17 10° ENE
STARLINK-43 3.3 05:59:05 22° WSW 06:01:25 87° SSE 06:05:10 10° ENE
STARLINK-29 3.1 05:59:42 27° W 06:01:29 74° N 06:04:58 10° E
ADEOS Rocket 4.2 05:54:48 10° SE 06:02:19 58° ENE 06:09:25 10° N
SJ-12 3.9 05:58:17 10° N 06:02:24 61° WNW 06:06:29 10° SSW
Cosmos 1437 2.9 06:00:12 10° S 06:03:13 67° E 06:06:17 10° NNE
Cosmos 1151 Rocket 3.4 06:00:22 10° NNW 06:04:32 42° W 06:08:38 10° SSW
Cosmos 1328 Rocket 4.0 06:02:20 10° NNW 06:06:22 37° W 06:10:20 10° SSW
In-Cosmos 22 Rocket 4.5 06:01:59 10° SW 06:07:04 41° WNW 06:12:19 10° N
Cosmos 1459 Rocket 4.1 06:01:04 10° SSW 06:07:06 51° WNW 06:13:15 10° N
Cosmos 1515 Rocket 3.6 06:03:27 10° NNW 06:07:43 56° W 06:11:57 10° S
SKYMED 2 4.4 06:04:07 10° SSW 06:07:55 29° W 06:11:44 10° NNW
CZ-4B DEB 4.1 06:03:21 10° NNE 06:08:47 68° WNW 06:14:13 10° SSW
SL-16 R/B 4.2 06:06:21 10° NNW 06:10:25 19° NNE 06:14:28 10° ENE
Cosmos 2082 Rocket 3.2 06:07:28 17° W 06:10:37 27° NW 06:15:27 10° NNE
Cosmos 1725 Rocket 4.0 06:06:40 10° SSW 06:12:56 77° WNW 06:19:18 10° N
FALCON 9 DEB 3.1 06:11:38 20° W 06:13:51 74° N 06:17:18 10° E
Cosmos 2016 Rocket 4.0 06:09:11 10° SSW 06:15:22 62° WNW 06:21:41 10° N
Cosmos 1743 Rocket 3.5 06:11:36 10° S 06:15:56 90° WNW 06:20:18 10° N
Cosmos 2237 4.3 06:11:55 10° NW 06:17:32 57° WSW 06:23:06 10° S
Cosmos 372 Rocket 3.9 06:13:39 10° SSW 06:18:49 77° WNW 06:23:58 10° NNE
SL-27 R/B 4.0 06:20:13 15° NW 06:20:17 15° NW 06:22:23 10° NNW
COSMOS 2487 2.3 06:18:57 10° SSW 06:22:23 65° WNW 06:25:51 10° NNE
SAR-Lupe-2 4.4 06:19:46 10° SSE 06:23:15 52° ENE 06:26:46 10° N
STARLINK-61 4.2 06:20:02 10° SW 06:23:58 56° SSE 06:27:57 10° ENE
RESURS DK-1 3.7 06:20:43 10° NNW 06:24:34 35° NE 06:28:23 10° ESE
Cosmos 1833 Rocket 4.1 06:22:47 13° WNW 06:25:41 19° NNW 06:29:39 10° NNE
Lacrosse 5 2.2 06:21:53 14° W 06:26:12 51° N 06:31:10 10° ENE
COSMOS 2455 4.1 06:23:42 13° WNW 06:27:22 22° WSW 06:31:47 10° SSW
CZ-2C R/B 3.7 06:24:15 10° NNW 06:27:37 19° NW 06:30:54 10° W
Cosmos 2298 Rocket 4.1 06:22:50 10° SW 06:28:06 61° WNW 06:33:23 10° NNE
Tsikada Rocket 4.2 06:22:42 10° NNW 06:28:52 52° W 06:34:59 10° SSW
COSMOS 2428 2.9 06:23:26 10° NNW 06:29:11 76° ENE 06:34:55 10° SE
ATLAS CENTAUR R/B 1.7 06:28:35 10° SW 06:33:30 85° NW 06:38:16 10° NE
Cosmos 1408 Rocket 4.1 06:29:37 10° SW 06:33:35 35° WNW 06:37:36 10° N
STARLINK-68 4.5 06:30:16 10° SW 06:34:18 51° SSE 06:38:20 10° ENE
Cosmos 1238 Rocket 3.9 06:27:57 10° SSW 06:34:31 79° W 06:40:24 10° N
NOSS 3-4 (A) 4.5 06:28:33 10° NW 06:34:50 38° WSW 06:41:44 10° S
NOSS 3-4 (C) 4.5 06:28:38 10° NW 06:34:57 38° WSW 06:41:50 10° S
STARLINK-58 4.5 06:31:41 10° SW 06:35:42 51° SSE 06:39:44 10° ENE
Cosmos 1933 4.1 06:32:08 10° NNW 06:35:45 32° W 06:39:20 10° SSW
Cosmos 1833 4.4 06:30:34 10° SSW 06:36:11 79° ESE 06:41:51 10° NNE
Cosmos 2360 Rocket 2.7 06:32:15 10° NW 06:37:32 40° WSW 06:42:45 10° S
STARLINK-62 4.4 06:33:33 10° SW 06:37:35 53° SSE 06:41:38 10° ENE
SL-16 R/B 3.6 06:34:23 10° WNW 06:38:16 19° W 06:42:09 10° SW
STARLINK-63 4.4 06:35:08 10° SW 06:39:10 53° SSE 06:43:13 10° ENE
Cosmos 1500 Rocket 3.6 06:35:28 10° SSW 06:39:53 60° WNW 06:44:18 10° N
Cosmos 2237 Rocket 3.2 06:34:40 10° NNW 06:40:08 45° NE 06:45:33 10° ESE
ALOS 2.7 06:37:09 10° N 06:41:29 38° WNW 06:45:47 10° SW
STARLINK-46 3.5 06:39:12 11° W 06:41:55 43° SSW 06:44:45 10° SE
STARLINK-72 4.4 06:38:23 10° SW 06:42:25 54° SSE 06:46:29 10° ENE
STARLINK-59 4.3 06:41:45 10° SW 06:45:48 57° SSE 06:49:53 10° ENE
Cosmos 2151 4.4 06:43:43 10° WSW 06:46:46 19° WNW 06:49:51 10° NNW
NOSS 3-3 (A) 4.5 06:41:10 10° W 06:47:12 47° NNW 06:54:01 10° NE
Cosmos 2322 Rocket 3.6 06:43:26 10° WNW 06:47:17 19° W 06:51:07 10° SW
NOSS 3-3 (C) 4.4 06:41:16 10° W 06:47:18 47° NNW 06:54:08 10° NE
STARLINK-57 4.3 06:43:26 10° SW 06:47:31 58° SSE 06:51:36 10° ENE
SMAP 3.2 06:43:23 10° NNE 06:48:05 86° ESE 06:52:45 10° SSW
Cosmos 1408 3.9 06:46:15 10° WSW 06:49:04 20° WNW 06:51:53 10° NNW
Radarsat Rocket 3.9 06:43:13 10° NNE 06:49:07 77° WNW 06:54:58 10° SSW
Cosmos 1315 Rocket 2.8 06:45:20 10° NNW 06:49:22 83° W 06:53:25 10° S
Lacrosse 5 rocket 1.1 06:46:48 10° WNW 06:50:23 68° SSW 06:53:56 10° SE
STARLINK-28 4.2 06:46:42 10° SW 06:50:47 60° SSE 06:54:53 10° ENE
STARLINK-53 4.2 06:47:25 10° SW 06:51:30 60° SSE 06:55:37 10° ENE
STARLINK-75 4.1 06:48:12 10° WSW 06:52:19 65° SSE 06:56:26 10° ENE
Sich 1 3.5 06:49:47 10° S 06:54:00 68° E 06:58:17 10° NNE
STARLINK-54 4.2 06:50:01 10° WSW 06:54:06 62° SSE 06:58:13 10° ENE
Meteor 2-3 Rocket 3.8 06:48:27 10° SSW 06:54:10 64° WNW 06:59:58 10° N
Okean-O 3.2 06:51:51 10° NNE 06:56:16 64° ESE 07:00:40 10° S
